Time,TemperatureF,DewpointF,PressureIn,WindDirection,WindDirectionDegrees,WindSpeedMPH,WindSpeedGustMPH,Humidity,HourlyPrecipIn,Conditions,Clouds,dailyrainin,SoftwareType,DateUTC
2015-07-07 00:04:00,64.8,57.1,30.04,WSW,248,0.0,0.0,76,0.00,,,0.00,WUHU216HW,2015-07-07 07:04:00,
2015-07-07 00:09:00,64.8,57.4,30.03,WSW,248,0.4,0.4,77,0.00,,,0.00,WUHU216HW,2015-07-07 07:09:00,
2015-07-07 00:14:00,64.8,57.4,30.04,WSW,248,0.0,0.4,77,0.00,,,0.00,WUHU216HW,2015-07-07 07:14:00,
2015-07-07 00:19:00,64.8,57.4,30.03,NW,315,1.1,1.6,77,0.00,,,0.00,WUHU216HW,2015-07-07 07:19:00,
2015-07-07 00:24:00,64.8,57.4,30.03,WSW,248,0.0,1.6,77,0.00,,,0.00,WUHU216HW,2015-07-07 07:24:00,
2015-07-07 00:29:00,64.8,57.4,30.03,WNW,293,0.9,1.3,77,0.00,,,0.00,WUHU216HW,2015-07-07 07:29:00,
2015-07-07 00:34:00,64.6,57.6,30.03,West,270,1.1,1.1,78,0.00,,,0.00,WUHU216HW,2015-07-07 07:34:00,
2015-07-07 00:39:00,64.6,57.6,30.03,West,270,1.1,1.3,78,0.00,,,0.00,WUHU216HW,2015-07-07 07:39:00,
2015-07-07 00:49:00,64.6,58.0,30.03,West,270,0.4,1.3,79,0.00,,,0.00,WUHU216HW,2015-07-07 07:49:00,
2015-07-07 00:54:00,64.6,57.6,30.03,West,270,0.0,1.1,78,0.00,,,0.00,WUHU216HW,2015-07-07 07:54:00,
2015-07-07 00:59:00,64.8,57.8,30.03,West,270,1.1,1.8,78,0.00,,,0.00,WUHU216HW,2015-07-07 07:59:00,
2015-07-07 01:09:00,64.6,57.6,30.03,West,270,0.7,2.2,78,0.00,,,0.00,WUHU216HW,2015-07-07 08:09:00,
2015-07-07 01:14:00,64.4,57.8,30.03,WNW,293,0.7,1.8,79,0.00,,,0.00,WUHU216HW,2015-07-07 08:14:00,
2015-07-07 01:19:00,64.3,57.6,30.03,NW,315,0.7,1.6,79,0.00,,,0.00,WUHU216HW,2015-07-07 08:19:00,
2015-07-07 01:24:00,64.1,57.8,30.03,WNW,293,0.7,1.8,80,0.00,,,0.00,WUHU216HW,2015-07-07 08:24:00,
2015-07-07 01:29:00,64.1,57.4,30.03,West,270,1.1,1.8,79,0.00,,,0.00,WUHU216HW,2015-07-07 08:29:00,
2015-07-07 01:34:00,63.9,57.2,30.02,WSW,248,1.8,2.5,79,0.00,,,0.00,WUHU216HW,2015-07-07 08:34:00,
2015-07-07 01:39:00,63.9,57.6,30.02,West,270,0.7,2.5,80,0.00,,,0.00,WUHU216HW,2015-07-07 08:39:00,
2015-07-07 01:44:00,63.9,57.6,30.03,WSW,248,0.9,2.5,80,0.00,,,0.00,WUHU216HW,2015-07-07 08:44:00,
2015-07-07 01:49:00,63.7,57.4,30.03,NW,315,0.4,1.8,80,0.00,,,0.00,WUHU216HW,2015-07-07 08:49:00,
2015-07-07 01:54:00,63.7,57.4,30.02,West,270,0.4,1.3,80,0.00,,,0.00,WUHU216HW,2015-07-07 08:54:00,
2015-07-07 01:59:00,63.7,57.4,30.03,West,270,0.7,1.1,80,0.00,,,0.00,WUHU216HW,2015-07-07 08:59:00,
2015-07-07 02:04:00,63.7,57.4,30.03,West,270,0.4,1.1,80,0.00,,,0.00,WUHU216HW,2015-07-07 09:04:00,
2015-07-07 02:09:00,63.7,57.4,30.02,West,270,0.4,1.1,80,0.00,,,0.00,WUHU216HW,2015-07-07 09:09:00,
2015-07-07 02:14:00,63.9,57.6,30.02,West,270,0.0,1.1,80,0.00,,,0.00,WUHU216HW,2015-07-07 09:14:00,
2015-07-07 02:19:00,64.1,57.8,30.02,SW,225,0.4,0.4,80,0.00,,,0.00,WUHU216HW,2015-07-07 09:19:00,
2015-07-07 02:24:00,64.1,57.4,30.02,SW,225,0.0,0.4,79,0.00,,,0.00,WUHU216HW,2015-07-07 09:24:00,
2015-07-07 02:29:00,63.9,57.6,30.02,SSW,203,0.4,1.6,80,0.00,,,0.00,WUHU216HW,2015-07-07 09:29:00,
2015-07-07 02:34:00,63.9,57.6,30.02,West,270,0.0,1.6,80,0.00,,,0.00,WUHU216HW,2015-07-07 09:34:00,
2015-07-07 02:39:00,63.7,57.4,30.02,West,270,0.0,0.9,80,0.00,,,0.00,WUHU216HW,2015-07-07 09:39:00,
2015-07-07 02:44:00,63.7,57.4,30.02,WSW,248,0.0,0.4,80,0.00,,,0.00,WUHU216HW,2015-07-07 09:44:00,
2015-07-07 02:54:00,63.7,57.4,30.02,SW,225,0.0,0.7,80,0.00,,,0.00,WUHU216HW,2015-07-07 09:54:00,
2015-07-07 02:59:00,63.7,57.4,30.01,WSW,248,0.4,1.1,80,0.00,,,0.00,WUHU216HW,2015-07-07 09:59:00,
2015-07-07 03:04:00,63.7,57.4,30.01,WSW,248,0.0,1.1,80,0.00,,,0.00,WUHU216HW,2015-07-07 10:04:00,
2015-07-07 03:09:00,63.7,57.4,30.01,WSW,248,0.0,0.7,80,0.00,,,0.00,WUHU216HW,2015-07-07 10:09:00,
2015-07-07 03:14:00,63.7,57.4,30.01,WSW,248,0.9,1.1,80,0.00,,,0.00,WUHU216HW,2015-07-07 10:14:00,
2015-07-07 03:19:00,63.7,57.4,30.01,WSW,248,0.0,1.1,80,0.00,,,0.00,WUHU216HW,2015-07-07 10:19:00,
2015-07-07 03:24:00,63.7,57.4,30.01,WSW,248,0.0,0.9,80,0.00,,,0.00,WUHU216HW,2015-07-07 10:24:00,
2015-07-07 03:29:00,63.7,57.4,30.01,WSW,248,0.0,0.4,80,0.00,,,0.00,WUHU216HW,2015-07-07 10:29:00,
2015-07-07 03:34:00,63.7,57.4,30.01,West,270,1.1,1.1,80,0.00,,,0.00,WUHU216HW,2015-07-07 10:34:00,
2015-07-07 03:39:00,63.7,57.4,30.01,WSW,248,0.2,1.1,80,0.00,,,0.00,WUHU216HW,2015-07-07 10:39:00,
2015-07-07 03:44:00,63.7,57.4,30.01,WNW,293,0.2,1.1,80,0.00,,,0.00,WUHU216HW,2015-07-07 10:44:00,
2015-07-07 03:49:00,63.7,57.4,30.01,WNW,293,0.0,0.7,80,0.00,,,0.00,WUHU216HW,2015-07-07 10:49:00,
2015-07-07 03:54:00,63.5,57.2,30.01,WNW,293,0.0,0.4,80,0.00,,,0.00,WUHU216HW,2015-07-07 10:54:00,
2015-07-07 03:59:00,63.5,57.2,30.01,WSW,248,0.7,0.9,80,0.00,,,0.00,WUHU216HW,2015-07-07 10:59:00,
2015-07-07 04:04:00,63.5,57.2,30.01,WNW,293,0.0,0.9,80,0.00,,,0.00,WUHU216HW,2015-07-07 11:04:00,
2015-07-07 04:09:00,63.5,57.2,30.01,WNW,293,0.0,0.9,80,0.00,,,0.00,WUHU216HW,2015-07-07 11:09:00,
2015-07-07 04:14:00,63.4,57.1,30.01,WSW,248,0.4,0.4,80,0.00,,,0.00,WUHU216HW,2015-07-07 11:14:00,
2015-07-07 04:19:00,63.4,57.1,30.01,West,270,0.4,0.7,80,0.00,,,0.00,WUHU216HW,2015-07-07 11:19:00,
2015-07-07 04:24:00,63.4,57.1,30.01,WSW,248,0.0,0.7,80,0.00,,,0.00,WUHU216HW,2015-07-07 11:24:00,
2015-07-07 04:29:00,63.4,57.4,30.01,NW,315,0.0,0.9,81,0.00,,,0.00,WUHU216HW,2015-07-07 11:29:00,
2015-07-07 04:34:00,63.4,57.4,30.01,WSW,248,0.0,1.8,81,0.00,,,0.00,WUHU216HW,2015-07-07 11:34:00,
2015-07-07 04:39:00,63.4,57.4,30.01,West,270,0.2,1.8,81,0.00,,,0.00,WUHU216HW,2015-07-07 11:39:00,
2015-07-07 04:44:00,63.5,57.2,30.01,WSW,248,0.0,1.1,80,0.00,,,0.00,WUHU216HW,2015-07-07 11:44:00,
2015-07-07 04:49:00,63.5,57.2,30.01,WSW,248,0.2,1.1,80,0.00,,,0.00,WUHU216HW,2015-07-07 11:49:00,
2015-07-07 04:54:00,63.5,57.2,30.01,WSW,248,0.0,0.4,80,0.00,,,0.00,WUHU216HW,2015-07-07 11:54:00,
2015-07-07 04:59:00,63.5,57.2,30.02,WSW,248,0.9,0.9,80,0.00,,,0.00,WUHU216HW,2015-07-07 11:59:00,
2015-07-07 05:04:00,63.4,57.1,30.01,WSW,248,0.0,0.9,80,0.00,,,0.00,WUHU216HW,2015-07-07 12:04:00,
2015-07-07 05:09:00,63.4,57.1,30.01,West,270,0.0,0.9,80,0.00,,,0.00,WUHU216HW,2015-07-07 12:09:00,
2015-07-07 05:14:00,63.4,57.1,30.02,WSW,248,0.2,1.8,80,0.00,,,0.00,WUHU216HW,2015-07-07 12:14:00,